Aeroporto :
LOGIN :

Iscrizione | Disclaimer

   EN    FR    IT 

 










Sommario :    VFR   VFR Marginale   IFR   IFR Intensivo   IFR Molto Intensivo
Visibilità : 
Base nubi : 
>= 8 km
>= 3000ft
5 / 8 km
1000 / 3000 ft
1500m / 5 km
500 / 1000 ft
800 / 1500m
200 / 500 ft
< 800m
< 200 ft
Simboli :   Temporali  Nebbia  Neve Forte  Precipitazioni Forti  Vento > 20 kt
SIGMETs :   Varie  Temporali  Ghiacco  Turbolenza  Onda orograficha  Ceneri Vulcaniche






- Altitudine del aeroporto : 13 ft
- Codice IATA : CEQ


LFMD - Cannes Mandelieu

ULTIMO METAR :
  • 180630Z AUTO 36003KT 320V050 CAVOK 19/15 Q1018 NOSIG

METARs OBSOLETI :
  • 180600Z AUTO VRB03KT CAVOK 18/14 Q1017 NOSIG
  • 180530Z AUTO 36003KT 330V040 CAVOK 18/14 Q1017 NOSIG
  • 180500Z AUTO 36003KT 320V040 CAVOK 18/14 Q1017 NOSIG
  • 180430Z AUTO VRB03KT CAVOK 18/14 Q1017 NOSIG
  • 180400Z AUTO VRB02KT CAVOK 18/14 Q1017 NOSIG

TAF TAF LFMD
Valido dal 18 a 03 ore il 19 a 03 ore UTC


180200Z 1803/1903 VRB03KT CAVOK
PROB40
TEMPO 1811/1815 18010KT
ATIS : +33 4 93 48 73 23



MetMap, La meteo Aeronautica in un colpo d'occhio ! - Copyright ORBIFLY Dicembre 2007 - Disclaimer

ORBIFLY MET'MAP TEAM :

Programmazione e sviluppo : Alexandra Zaïnal
Concezione : Baudouin d'Aumeries
Aiuto per la programmazione : Marc-Olivier Méhu
Supporto tecnico e logistico : Manuel Goepfert
Aiuto per la traduzione : Arnaldo La Scala

Contatto : metmap@orbifly.com




FONTI E CREDITI :

   NOAA